| time (UTC) | temp F | wind direction | speed knots | gust knots | rain 1hr in | rain 24hr in | rain mn in | humidity % | barometer mb |
| 20260906234224 | 80 | 80 | 2.6 | 6.1 | 0.00 | 0.01 | 0.01 | 84 | 1011.4 |
| 20260906233224 | 82 | 39 | 2.6 | 7.8 | 0.00 | 0.01 | 0.01 | 83 | 1011.4 |
| 20260906232713 | 83 | 25 | 3.5 | 9.6 | 0.00 | 0.01 | 0.01 | 80 | 1011.3 |
| 20260906231224 | 85 | 61 | 4.3 | 7.8 | 0.00 | 0.01 | 0.01 | 75 | 1011.4 |
| 20260906230225 | 86 | 5 | 5.2 | 10.4 | 0.00 | 0.01 | 0.01 | 72 | 1011.2 |
| 20260906225224 | 86 | 313 | 3.5 | 8.7 | 0.00 | 0.01 | 0.01 | 74 | 1010.7 |
| 20260906224223 | 87 | 324 | 2.6 | 8.7 | 0.00 | 0.01 | 0.01 | 72 | 1010.5 |
| 20260906223224 | 87 | 250 | 3.5 | 7.8 | 0.00 | 0.01 | 0.01 | 72 | 1010.3 |
| 20260906222224 | 88 | 289 | 4.3 | 11.3 | 0.00 | 0.01 | 0.01 | 72 | 1010.3 |
| 20260906221225 | 88 | 221 | 2.6 | 7.0 | 0.00 | 0.01 | 0.01 | 74 | 1010.1 |
| 20260906220225 | 89 | 198 | 3.5 | 9.6 | 0.00 | 0.01 | 0.01 | 71 | 1009.9 |
| 20260906215702 | 90 | 177 | 3.5 | 7.8 | 0.00 | 0.01 | 0.01 | 70 | 1010.1 |
| 20260906214223 | 90 | 182 | 4.3 | 9.6 | 0.00 | 0.02 | 0.01 | 70 | 1010.0 |
| 20260906213225 | 92 | 181 | 3.5 | 7.8 | 0.00 | 0.06 | 0.01 | 66 | 1009.8 |
| 20260906212227 | 92 | 232 | 4.3 | 9.6 | 0.00 | 0.19 | 0.01 | 64 | 1010.1 |
| 20260906211657 | 93 | 216 | 4.3 | 8.7 | 0.00 | 0.24 | 0.01 | 65 | 1010.1 |
| 20260906211148 | 93 | 229 | 5.2 | 10.4 | 0.00 | 0.24 | 0.01 | 60 | 1009.8 |
| 20260906205223 | 94 | 192 | 4.3 | 8.7 | 0.00 | 0.24 | 0.01 | 59 | 1009.8 |
| 20260906204221 | 94 | 242 | 4.3 | 10.4 | 0.00 | 0.24 | 0.01 | 58 | 1010.1 |
| 20260906203222 | 94 | 283 | 3.5 | 8.7 | 0.00 | 0.24 | 0.01 | 60 | 1010.2 |
| 20260906202222 | 94 | 254 | 4.3 | 10.4 | 0.00 | 0.24 | 0.01 | 59 | 1010.4 |
| 20260906201220 | 94 | 234 | 3.5 | 7.0 | 0.00 | 0.24 | 0.01 | 58 | 1010.4 |
| 20260906200219 | 94 | 279 | 4.3 | 9.6 | 0.00 | 0.24 | 0.01 | 61 | 1010.7 |
| 20260906195220 | 94 | 282 | 3.5 | 7.8 | 0.00 | 0.24 | 0.01 | 62 | 1011.0 |
| 20260906194219 | 94 | 290 | 4.3 | 9.6 | 0.00 | 0.24 | 0.01 | 60 | 1010.7 |
| 20260906193219 | 93 | 254 | 3.5 | 8.7 | 0.00 | 0.24 | 0.01 | 64 | 1010.8 |
| 20260906192222 | 94 | 289 | 3.5 | 7.0 | 0.00 | 0.24 | 0.01 | 63 | 1011.0 |
| 20260906191700 | 92 | 292 | 3.5 | 8.7 | 0.00 | 0.24 | 0.01 | 68 | 1011.5 |
| 20260906190655 | 93 | 290 | 3.5 | 7.0 | 0.00 | 0.24 | 0.01 | 66 | 1011.5 |
| 20260906185212 | 91 | 261 | 5.2 | 11.3 | 0.00 | 0.24 | 0.01 | 67 | 1011.4 |
| 20260906184210 | 94 | 304 | 5.2 | 11.3 | 0.00 | 0.24 | 0.01 | 66 | 1011.6 |
| 20260906183211 | 93 | 241 | 3.5 | 7.0 | 0.00 | 0.24 | 0.01 | 65 | 1011.6 |
| 20260906182210 | 93 | 281 | 2.6 | 6.1 | 0.00 | 0.24 | 0.01 | 64 | 1011.8 |
| 20260906181209 | 91 | 275 | 2.6 | 6.1 | 0.00 | 0.24 | 0.01 | 72 | 1011.8 |
| 20260906180207 | 93 | 277 | 3.5 | 7.0 | 0.00 | 0.24 | 0.01 | 63 | 1011.8 |
| 20260906175207 | 95 | 309 | 3.5 | 7.0 | 0.00 | 0.24 | 0.01 | 64 | 1011.9 |
| 20260906174209 | 93 | 269 | 3.5 | 7.8 | 0.00 | 0.24 | 0.01 | 65 | 1011.9 |
| 20260906173208 | 93 | 254 | 3.5 | 7.8 | 0.00 | 0.24 | 0.01 | 64 | 1012.0 |
| 20260906172205 | 93 | 213 | 2.6 | 7.8 | 0.00 | 0.24 | 0.01 | 64 | 1012.1 |
| 20260906172130 | 93 | 215 | 1.7 | 6.1 | 0.00 | 0.24 | 0.01 | 67 | 1012.1 |
| 20260906170205 | 92 | 203 | 1.7 | 7.0 | 0.00 | 0.24 | 0.01 | 65 | 1012.3 |
| 20260906165204 | 92 | 292 | 3.5 | 7.8 | 0.00 | 0.24 | 0.01 | 68 | 1012.5 |
| 20260906164204 | 92 | 282 | 2.6 | 7.0 | 0.00 | 0.24 | 0.01 | 64 | 1012.5 |
| 20260906163203 | 92 | 289 | 3.5 | 8.7 | 0.00 | 0.24 | 0.01 | 65 | 1012.8 |
| 20260906162203 | 91 | 295 | 2.6 | 7.0 | 0.00 | 0.24 | 0.01 | 68 | 1012.9 |
| 20260906161204 | 90 | 301 | 2.6 | 7.0 | 0.00 | 0.24 | 0.01 | 69 | 1013.1 |
| 20260906160205 | 90 | 208 | 2.6 | 6.1 | 0.00 | 0.24 | 0.01 | 69 | 1013.1 |
| 20260906155203 | 90 | 251 | 3.5 | 6.1 | 0.00 | 0.24 | 0.01 | 69 | 1013.2 |
| 20260906154202 | 90 | 268 | 2.6 | 7.0 | 0.00 | 0.24 | 0.01 | 71 | 1013.3 |
| 20260906153204 | 89 | 250 | 2.6 | 6.1 | 0.00 | 0.24 | 0.01 | 71 | 1013.5 |
| 20260906152204 | 88 | 239 | 2.6 | 4.3 | 0.00 | 0.24 | 0.01 | 74 | 1013.5 |
| 20260906151204 | 88 | 280 | 1.7 | 7.0 | 0.00 | 0.24 | 0.01 | 72 | 1013.5 |
| 20260906150206 | 89 | 264 | 2.6 | 6.1 | 0.00 | 0.24 | 0.01 | 76 | 1013.5 |
| 20260906145156 | 89 | 275 | 2.6 | 6.1 | 0.00 | 0.24 | 0.01 | 72 | 1013.6 |
| 20260906144155 | 88 | 267 | 2.6 | 7.0 | 0.00 | 0.24 | 0.01 | 71 | 1013.6 |
| 20260906143156 | 87 | 286 | 2.6 | 8.7 | 0.00 | 0.24 | 0.01 | 78 | 1013.5 |
| 20260906142152 | 87 | 257 | 1.7 | 4.3 | 0.00 | 0.24 | 0.01 | 79 | 1013.5 |
| 20260906141153 | 87 | 300 | 2.6 | 6.1 | 0.00 | 0.24 | 0.01 | 80 | 1013.6 |
| 20260906140636 | 85 | 262 | 1.7 | 6.1 | 0.00 | 0.24 | 0.01 | 82 | 1013.7 |
| 20260906135153 | 85 | 293 | 2.6 | 6.1 | 0.00 | 0.24 | 0.01 | 83 | 1013.8 |
| 20260906134153 | 84 | 285 | 0.9 | 6.1 | 0.00 | 0.24 | 0.01 | 85 | 1013.9 |
| 20260906133643 | 84 | 237 | 0.9 | 2.6 | 0.00 | 0.24 | 0.01 | 86 | 1013.8 |
| 20260906132151 | 83 | 186 | 0.0 | 0.0 | 0.00 | 0.24 | 0.01 | 88 | 1013.9 |
| 20260906131152 | 82 | 186 | 0.0 | 0.0 | 0.00 | 0.24 | 0.01 | 89 | 1013.9 |
| 20260906130634 | 81 | 179 | 0.0 | 0.0 | 0.00 | 0.24 | 0.01 | 91 | 1013.9 |
| 20260906125152 | 81 | 179 | 0.0 | 0.0 | 0.00 | 0.24 | 0.01 | 92 | 1013.8 |
| 20260906124141 | 80 | 179 | 0.0 | 0.0 | 0.00 | 0.24 | 0.01 | 93 | 1013.7 |
| 20260906124105 | 79 | 178 | 0.0 | 0.0 | 0.00 | 0.24 | 0.01 | 94 | 1013.6 |
| 20260906122142 | 78 | 179 | 0.0 | 0.0 | 0.00 | 0.24 | 0.01 | 94 | 1013.4 |
| 20260906121143 | 77 | 179 | 0.0 | 3.5 | 0.00 | 0.24 | 0.01 | 95 | 1013.4 |
| 20260906120126 | 76 | 178 | 0.0 | 1.7 | 0.00 | 0.24 | 0.01 | 95 | 1013.4 |
| 20260906115128 | 75 | 178 | 0.0 | 0.0 | 0.00 | 0.24 | 0.01 | 95 | 1013.2 |
| 20260906114126 | 74 | 178 | 0.0 | 0.0 | 0.00 | 0.24 | 0.01 | 95 | 1013.1 |
| 20260906114056 | 74 | 178 | 0.0 | 0.0 | 0.00 | 0.24 | 0.01 | 95 | 1013.0 |
| 20260906112618 | 74 | 178 | 0.0 | 0.0 | 0.00 | 0.24 | 0.01 | 94 | 1012.9 |
| 20260906111126 | 74 | 178 | 0.0 | 0.0 | 0.00 | 0.24 | 0.01 | 94 | 1012.9 |
| 20260906110127 | 74 | 178 | 0.0 | 0.0 | 0.00 | 0.24 | 0.01 | 94 | 1012.7 |
| 20260906105609 | 74 | 178 | 0.0 | 0.0 | 0.00 | 0.24 | 0.01 | 94 | 1012.5 |
| 20260906104126 | 74 | 178 | 0.0 | 0.0 | 0.00 | 0.24 | 0.01 | 94 | 1012.3 |
| 20260906103609 | 74 | 178 | 0.0 | 0.0 | 0.00 | 0.24 | 0.01 | 94 | 1012.1 |
| 20260906102130 | 74 | 178 | 0.0 | 0.0 | 0.00 | 0.24 | 0.01 | 94 | 1012.0 |
| 20260906101125 | 74 | 178 | 0.0 | 0.0 | 0.00 | 0.24 | 0.01 | 94 | 1011.8 |
| 20260906100127 | 74 | 178 | 0.0 | 0.0 | 0.00 | 0.24 | 0.01 | 94 | 1011.8 |
| 20260906095126 | 74 | 178 | 0.0 | 0.0 | 0.00 | 0.24 | 0.01 | 94 | 1011.9 |
| 20260906094608 | 74 | 178 | 0.0 | 0.0 | 0.00 | 0.24 | 0.01 | 94 | 1011.8 |
| 20260906093601 | 74 | 178 | 0.0 | 0.0 | 0.00 | 0.24 | 0.01 | 94 | 1011.8 |
| 20260906092126 | 75 | 178 | 0.0 | 0.0 | 0.00 | 0.24 | 0.01 | 94 | 1011.7 |
| 20260906091127 | 74 | 178 | 0.0 | 0.0 | 0.00 | 0.24 | 0.01 | 94 | 1011.5 |
| 20260906090127 | 75 | 178 | 0.0 | 0.0 | 0.00 | 0.24 | 0.01 | 94 | 1011.5 |
| 20260906085127 | 75 | 178 | 0.0 | 0.0 | 0.00 | 0.24 | 0.01 | 94 | 1011.4 |
| 20260906084126 | 75 | 178 | 0.0 | 0.0 | 0.00 | 0.24 | 0.01 | 94 | 1011.3 |
| 20260906083129 | 75 | 178 | 0.0 | 0.0 | 0.00 | 0.24 | 0.01 | 94 | 1011.4 |
| 20260906082125 | 75 | 178 | 0.0 | 0.0 | 0.01 | 0.25 | 0.01 | 94 | 1011.4 |
| 20260906081123 | 75 | 178 | 0.0 | 0.0 | 0.01 | 0.25 | 0.01 | 94 | 1011.2 |
| 20260906080125 | 75 | 178 | 0.0 | 0.9 | 0.01 | 0.25 | 0.01 | 94 | 1011.2 |
| 20260906075125 | 75 | 178 | 0.9 | 3.5 | 0.01 | 0.25 | 0.01 | 94 | 1011.3 |
| 20260906074126 | 75 | 178 | 0.0 | 3.5 | 0.01 | 0.25 | 0.01 | 94 | 1011.4 |
| 20260906073110 | 75 | 178 | 0.0 | 3.5 | 0.01 | 0.25 | 0.01 | 94 | 1011.3 |
| 20260906072548 | 75 | 178 | 0.0 | 0.9 | 0.00 | 0.24 | 0.00 | 94 | 1011.4 |
| 20260906071110 | 75 | 178 | 0.0 | 0.0 | 0.00 | 0.24 | 0.00 | 94 | 1011.7 |
| 20260906070109 | 76 | 178 | 0.0 | 0.0 | 0.00 | 0.24 | 0.00 | 93 | 1011.7 |
| 20260906065058 | 76 | 178 | 0.0 | 0.9 | 0.00 | 0.24 | 0.00 | 93 | 1011.9 |
| 20260906065012 | 76 | 178 | 0.0 | 0.0 | 0.00 | 0.24 | 0.00 | 93 | 1012.2 |
| 20260906063056 | 76 | 178 | 0.0 | 0.0 | 0.00 | 0.24 | 0.00 | 93 | 1012.4 |
| 20260906062531 | 76 | 178 | 0.0 | 0.0 | 0.00 | 0.24 | 0.00 | 93 | 1012.5 |
| 20260906061055 | 76 | 178 | 0.0 | 0.9 | 0.00 | 0.24 | 0.00 | 93 | 1012.6 |
| 20260906060046 | 76 | 178 | 0.0 | 2.6 | 0.00 | 0.24 | 0.00 | 93 | 1012.6 |
| 20260906055046 | 76 | 178 | 0.9 | 3.5 | 0.00 | 0.24 | 0.00 | 93 | 1012.7 |
| 20260906054537 | 76 | 176 | 0.9 | 3.5 | 0.00 | 0.24 | 0.00 | 93 | 1012.7 |
| 20260906053043 | 77 | 175 | 0.9 | 3.5 | 0.00 | 0.24 | 0.00 | 93 | 1012.9 |
| 20260906052518 | 77 | 175 | 0.0 | 0.9 | 0.00 | 0.24 | 0.00 | 93 | 1012.9 |
| 20260906051041 | 77 | 175 | 0.0 | 0.9 | 0.00 | 0.24 | 0.00 | 93 | 1013.0 |
| 20260906050037 | 77 | 175 | 0.0 | 0.9 | 0.00 | 0.24 | 0.00 | 93 | 1013.1 |
| 20260906045037 | 77 | 176 | 0.0 | 0.9 | 0.00 | 0.24 | 0.00 | 93 | 1013.1 |
| 20260906044038 | 77 | 176 | 0.0 | 0.0 | 0.00 | 0.24 | 0.00 | 92 | 1013.1 |
| 20260906043037 | 77 | 175 | 0.0 | 0.9 | 0.00 | 0.24 | 0.00 | 92 | 1013.0 |
| 20260906042034 | 77 | 175 | 0.9 | 3.5 | 0.00 | 0.24 | 0.00 | 92 | 1013.0 |
| 20260906041033 | 77 | 176 | 0.0 | 2.6 | 0.00 | 0.24 | 0.00 | 92 | 1013.1 |
| 20260906040031 | 77 | 175 | 0.0 | 0.0 | 0.00 | 0.24 | 0.00 | 92 | 1013.3 |
| 20260906035029 | 77 | 175 | 0.0 | 0.0 | 0.00 | 0.24 | 0.24 | 92 | 1013.3 |
| 20260906034029 | 78 | 176 | 0.0 | 0.0 | 0.00 | 0.24 | 0.24 | 91 | 1013.3 |
| 20260906033454 | 78 | 175 | 0.0 | 0.0 | 0.00 | 0.24 | 0.24 | 91 | 1013.4 |
| 20260906032500 | 78 | 176 | 0.0 | 2.6 | 0.00 | 0.24 | 0.24 | 91 | 1013.4 |
| 20260906031018 | 78 | 175 | 0.0 | 3.5 | 0.00 | 0.24 | 0.24 | 90 | 1013.5 |
| 20260906030018 | 78 | 176 | 1.7 | 4.3 | 0.00 | 0.24 | 0.24 | 90 | 1013.4 |
| 20260906025930 | 78 | 176 | 2.6 | 6.1 | 0.00 | 0.24 | 0.24 | 90 | 1013.4 |
| 20260906024018 | 78 | 191 | 1.7 | 3.5 | 0.00 | 0.24 | 0.24 | 90 | 1013.5 |
| 20260906023019 | 79 | 190 | 3.5 | 8.7 | 0.00 | 0.24 | 0.24 | 90 | 1013.6 |
| 20260906022015 | 79 | 163 | 3.5 | 6.1 | 0.00 | 0.24 | 0.24 | 91 | 1013.6 |
| 20260906021501 | 79 | 173 | 2.6 | 7.8 | 0.00 | 0.24 | 0.24 | 92 | 1013.5 |
| 20260906020017 | 78 | 194 | 1.7 | 6.1 | 0.00 | 0.25 | 0.24 | 92 | 1013.4 |
| 20260906015014 | 78 | 154 | 1.7 | 4.3 | 0.00 | 0.25 | 0.24 | 92 | 1013.4 |
| 20260906014502 | 78 | 146 | 1.7 | 3.5 | 0.00 | 0.25 | 0.24 | 92 | 1013.4 |
| 20260906013013 | 78 | 135 | 0.9 | 2.6 | 0.00 | 0.25 | 0.24 | 92 | 1013.2 |
| 20260906012015 | 78 | 131 | 0.0 | 2.6 | 0.00 | 0.26 | 0.24 | 92 | 1013.3 |
| 20260906011017 | 78 | 129 | 0.9 | 2.6 | 0.00 | 0.27 | 0.24 | 91 | 1013.1 |
| 20260906010456 | 79 | 129 | 0.0 | 1.7 | 0.00 | 0.27 | 0.24 | 91 | 1013.0 |
| 20260906005011 | 79 | 129 | 0.9 | 3.5 | 0.00 | 0.27 | 0.24 | 91 | 1012.9 |
| 20260906004009 | 79 | 129 | 1.7 | 6.1 | 0.00 | 0.27 | 0.24 | 91 | 1012.7 |
| 20260906003451 | 79 | 115 | 1.7 | 7.0 | 0.00 | 0.27 | 0.24 | 91 | 1012.8 |
| 20260906002009 | 79 | 229 | 0.0 | 2.6 | 0.00 | 0.27 | 0.24 | 92 | 1012.6 |
| 20260906001006 | 79 | 230 | 0.0 | 1.7 | 0.00 | 0.29 | 0.24 | 92 | 1012.5 |
| 20260906000005 | 79 | 230 | 0.0 | 0.9 | 0.00 | 0.29 | 0.24 | 91 | 1012.5 |